Location: Drocourt
(49.0571°N, 1.7669°E)
Time: 04:18:07
(UTC+00:00)

Transit 4A - Pass Details

Date: 14 April 2024
Orbit: 871 x 971 km, 66.8° (Epoch: 19 May)

Event Time Altitude Azimuth Distance (km) Brightness Sun altitude
Rises 17:46:58 0° 295° (WNW) 3,501 12.5 8.4°
Reaches altitude 10° 17:50:51 10° 320° (NW) 2,547 11.0 7.7°
Maximum altitude 17:53:53 14° 351° (N) 2,252 10.2 7.2°
Drops below altitude 10° 17:56:54 10° 23° (NNE) 2,533 10.1 6.7°
Sets 18:00:45 0° 48° (NE) 3,469 10.5 6.1°
